When you browse on this site, cookies collect data to enhance your experience and personalize the content and advertising you see.
Visit our Privacy Policy to learn more. By continuing to use the site, you agree to this use of cookies and data.

Meteo pe oră la Dziechowo

Astăzi, 26 Septembrie, Sâmbătă

Timp Temperatura Precipitaţii Vânt Presiune Umiditate
00:00 +15°C° 0 mm 2 m/s 736 mmHg 91%
01:00 +14°C° 0 mm 2 m/s 735 mmHg 91%
02:00 +13°C° 0 mm 3 m/s 735 mmHg 92%
03:00 +13°C° 0 mm 3 m/s 735 mmHg 93%
04:00 +13°C° 0 mm 3 m/s 735 mmHg 94%
05:00 +14°C° 0.5 mm 4 m/s 734 mmHg 94%
06:00 +14°C° 0.5 mm 4 m/s 734 mmHg 95%
07:00 +14°C° 0.5 mm 4 m/s 734 mmHg 95%
08:00 +15°C° 1.4 mm 5 m/s 734 mmHg 94%
09:00 +15°C° 1.4 mm 5 m/s 734 mmHg 93%
10:00 +16°C° 1.4 mm 5 m/s 734 mmHg 92%
11:00 +17°C° 0.1 mm 6 m/s 733 mmHg 85%
12:00 +20°C° 0.1 mm 6 m/s 733 mmHg 77%
13:00 +21°C° 0.1 mm 6 m/s 733 mmHg 69%
14:00 +20°C° 0.2 mm 6 m/s 733 mmHg 73%
15:00 +20°C° 0.2 mm 6 m/s 733 mmHg 77%
16:00 +19°C° 0.2 mm 5 m/s 733 mmHg 81%
17:00 +17°C° 0.1 mm 5 m/s 734 mmHg 85%
18:00 +17°C° 0.1 mm 4 m/s 734 mmHg 89%
19:00 +17°C° 0.1 mm 3 m/s 734 mmHg 92%
20:00 +16°C° 0 mm 3 m/s 735 mmHg 92%
21:00 +16°C° 0 mm 3 m/s 736 mmHg 91%
22:00 +15°C° 0 mm 2 m/s 736 mmHg 91%
23:00 +15°C° 0 mm 2 m/s 737 mmHg 90%

Mâine, 27 Septembrie, Duminică

Timp Temperatura Precipitaţii Vânt Presiune Umiditate
00:00 +14°C° 0 mm 1 m/s 737 mmHg 88%
01:00 +14°C° 0 mm 1 m/s 737 mmHg 87%
02:00 +14°C° 0.3 mm 1 m/s 737 mmHg 88%
03:00 +14°C° 0.3 mm 2 m/s 737 mmHg 90%
04:00 +15°C° 0.3 mm 2 m/s 736 mmHg 91%
05:00 +14°C° 0.1 mm 3 m/s 737 mmHg 88%
06:00 +15°C° 0.1 mm 4 m/s 737 mmHg 85%
07:00 +15°C° 0.1 mm 5 m/s 737 mmHg 82%
08:00 +16°C° 0.1 mm 5 m/s 737 mmHg 80%
09:00 +17°C° 0.1 mm 5 m/s 737 mmHg 77%
10:00 +19°C° 0.1 mm 6 m/s 737 mmHg 74%
11:00 +19°C° 0.1 mm 5 m/s 737 mmHg 75%
12:00 +19°C° 0.1 mm 4 m/s 738 mmHg 76%
13:00 +19°C° 0.1 mm 4 m/s 738 mmHg 77%
14:00 +18°C° 0.3 mm 4 m/s 738 mmHg 78%
15:00 +17°C° 0.3 mm 4 m/s 738 mmHg 79%
16:00 +17°C° 0.3 mm 3 m/s 738 mmHg 80%
17:00 +16°C° 0.4 mm 3 m/s 739 mmHg 83%
18:00 +14°C° 0.4 mm 3 m/s 739 mmHg 87%
19:00 +13°C° 0.4 mm 3 m/s 739 mmHg 90%
20:00 +13°C° 0.1 mm 3 m/s 740 mmHg 91%
21:00 +12°C° 0.1 mm 3 m/s 740 mmHg 92%
22:00 +12°C° 0.1 mm 3 m/s 741 mmHg 92%
23:00 +11°C° 0.1 mm 3 m/s 741 mmHg 92%

Poimâine, 28 Septembrie, Luni

Timp Temperatura Precipitaţii Vânt Presiune Umiditate
00:00 +11°C° 0.1 mm 3 m/s 741 mmHg 92%
01:00 +10°C° 0.1 mm 4 m/s 741 mmHg 92%
02:00 +10°C° 0 mm 4 m/s 742 mmHg 91%
03:00 +10°C° 0 mm 3 m/s 742 mmHg 91%
04:00 +10°C° 0 mm 3 m/s 742 mmHg 91%
05:00 +10°C° 0.3 mm 4 m/s 743 mmHg 91%
06:00 +10°C° 0.3 mm 4 m/s 743 mmHg 91%
07:00 +9°C° 0.3 mm 5 m/s 743 mmHg 91%
08:00 +10°C° 0.1 mm 5 m/s 744 mmHg 88%
09:00 +10°C° 0.1 mm 5 m/s 744 mmHg 85%
10:00 +10°C° 0.1 mm 5 m/s 744 mmHg 83%
11:00 +12°C° 0.1 mm 5 m/s 745 mmHg 78%
12:00 +13°C° 0.1 mm 5 m/s 745 mmHg 73%
13:00 +14°C° 0.1 mm 4 m/s 745 mmHg 68%
14:00 +14°C° 0.1 mm 4 m/s 745 mmHg 67%
15:00 +16°C° 0.1 mm 3 m/s 745 mmHg 66%
16:00 +16°C° 0.1 mm 3 m/s 745 mmHg 65%
17:00 +13°C° 0.1 mm 4 m/s 746 mmHg 69%
18:00 +12°C° 0.1 mm 4 m/s 746 mmHg 74%
19:00 +10°C° 0.1 mm 5 m/s 746 mmHg 79%
20:00 +10°C° 0 mm 4 m/s 746 mmHg 83%
21:00 +10°C° 0 mm 3 m/s 746 mmHg 87%
22:00 +9°C° 0 mm 3 m/s 746 mmHg 90%
23:00 +9°C° 0 mm 2 m/s 746 mmHg 92%

29 Septembrie, Marţi

Timp Temperatura Precipitaţii Vânt Presiune Umiditate
00:00 +9°C° 0 mm 2 m/s 746 mmHg 93%
01:00 +9°C° 0 mm 2 m/s 746 mmHg 95%
02:00 +9°C° 0 mm 1 m/s 746 mmHg 95%
03:00 +9°C° 0 mm 1 m/s 746 mmHg 95%
04:00 +9°C° 0 mm 1 m/s 746 mmHg 95%
05:00 +9°C° 0 mm 1 m/s 746 mmHg 94%
06:00 +10°C° 0 mm 1 m/s 746 mmHg 92%
07:00 +10°C° 0 mm 1 m/s 746 mmHg 91%
08:00 +12°C° 0 mm 1 m/s 746 mmHg 82%
09:00 +13°C° 0 mm 1 m/s 746 mmHg 74%
10:00 +15°C° 0 mm 1 m/s 747 mmHg 65%
11:00 +16°C° 0 mm 1 m/s 747 mmHg 61%
12:00 +17°C° 0 mm 2 m/s 747 mmHg 57%
13:00 +18°C° 0 mm 2 m/s 747 mmHg 52%
14:00 +17°C° 0.1 mm 2 m/s 747 mmHg 55%
15:00 +17°C° 0.1 mm 2 m/s 747 mmHg 58%
16:00 +17°C° 0.1 mm 2 m/s 747 mmHg 61%
17:00 +15°C° 0.1 mm 2 m/s 747 mmHg 66%
18:00 +13°C° 0.1 mm 3 m/s 747 mmHg 72%
19:00 +12°C° 0.1 mm 3 m/s 747 mmHg 77%
20:00 +11°C° 0 mm 3 m/s 747 mmHg 82%
21:00 +11°C° 0 mm 3 m/s 747 mmHg 86%
22:00 +10°C° 0 mm 3 m/s 746 mmHg 90%
23:00 +10°C° 0.1 mm 3 m/s 746 mmHg 90%

30 Septembrie, Miercuri

Timp Temperatura Precipitaţii Vânt Presiune Umiditate
00:00 +11°C° 0.1 mm 4 m/s 746 mmHg 91%
01:00 +11°C° 0.1 mm 4 m/s 746 mmHg 91%
02:00 +11°C° 0.3 mm 4 m/s 746 mmHg 91%
03:00 +12°C° 0.3 mm 4 m/s 746 mmHg 91%
04:00 +12°C° 0.3 mm 5 m/s 745 mmHg 92%
05:00 +13°C° 0.1 mm 5 m/s 745 mmHg 91%
06:00 +13°C° 0.1 mm 4 m/s 745 mmHg 91%
07:00 +13°C° 0.1 mm 4 m/s 745 mmHg 91%
08:00 +14°C° 0 mm 4 m/s 745 mmHg 88%
09:00 +14°C° 0 mm 4 m/s 745 mmHg 84%
10:00 +15°C° 0 mm 5 m/s 745 mmHg 81%
11:00 +15°C° 0.1 mm 5 m/s 745 mmHg 80%
12:00 +16°C° 0.1 mm 5 m/s 745 mmHg 79%
13:00 +16°C° 0.1 mm 5 m/s 745 mmHg 78%
14:00 +16°C° 0.1 mm 5 m/s 745 mmHg 79%
15:00 +15°C° 0.1 mm 5 m/s 745 mmHg 79%
16:00 +15°C° 0.1 mm 5 m/s 744 mmHg 80%
17:00 +14°C° 0.2 mm 5 m/s 744 mmHg 83%
18:00 +14°C° 0.2 mm 5 m/s 744 mmHg 85%
19:00 +13°C° 0.2 mm 5 m/s 744 mmHg 88%
20:00 +13°C° 0.2 mm 5 m/s 744 mmHg 88%
21:00 +13°C° 0.2 mm 5 m/s 744 mmHg 89%
22:00 +13°C° 0.2 mm 4 m/s 744 mmHg 89%
23:00 +12°C° 0.2 mm 4 m/s 744 mmHg 90%

1 Octombrie, Joi

Timp Temperatura Precipitaţii Vânt Presiune Umiditate
00:00 +12°C° 0.2 mm 4 m/s 744 mmHg 92%
01:00 +12°C° 0.2 mm 3 m/s 743 mmHg 93%
02:00 +12°C° 0.2 mm 3 m/s 743 mmHg 93%
03:00 +12°C° 0.2 mm 3 m/s 743 mmHg 94%
04:00 +11°C° 0.2 mm 3 m/s 743 mmHg 94%
05:00 +11°C° 0.1 mm 3 m/s 743 mmHg 94%
06:00 +11°C° 0.1 mm 3 m/s 743 mmHg 94%
07:00 +11°C° 0.1 mm 3 m/s 743 mmHg 93%
08:00 +12°C° 0 mm 3 m/s 743 mmHg 87%
09:00 +14°C° 0 mm 3 m/s 743 mmHg 81%
10:00 +16°C° 0 mm 3 m/s 743 mmHg 75%
11:00 +17°C° 0 mm 3 m/s 743 mmHg 70%
12:00 +18°C° 0 mm 3 m/s 743 mmHg 65%
13:00 +18°C° 0 mm 3 m/s 743 mmHg 60%
14:00 +18°C° 0 mm 3 m/s 742 mmHg 62%
15:00 +18°C° 0 mm 3 m/s 742 mmHg 64%
16:00 +18°C° 0 mm 3 m/s 742 mmHg 65%
17:00 +17°C° 0 mm 3 m/s 742 mmHg 71%
18:00 +15°C° 0 mm 2 m/s 743 mmHg 76%
19:00 +14°C° 0 mm 2 m/s 743 mmHg 81%
20:00 +13°C° 0 mm 3 m/s 743 mmHg 82%
21:00 +12°C° 0 mm 3 m/s 743 mmHg 82%
22:00 +12°C° 0 mm 3 m/s 743 mmHg 83%
23:00 +12°C° 0 mm 3 m/s 743 mmHg 84%
Arată mai mult